Flag for Poland Weather past 2 weeks in Elbląg, Poland

Now
49 °F

Fog.


Feels Like: 49 °F
Forecast: 42 / 51 °F
Wind: 2 mph from South

Location: Hel

Current Time: Apr 27, 2015 at 5:00:21 AM

Latest Report: Apr 27, 2015 at 4:00 AM


Visibility: 2 mi

Pressure: 29.69 "Hg

Humidity: 97%

Dew point: 48 °F

Location of ElblągLocation

Historic Weather in Elbląg — Graph

°F

Elbląg temperature yesterday

Maximum temperature yesterday: 59 °F (at 11:00 AM)
Minimum temperature yesterday: 46 °F (at 11:00 PM)
Average temperature yesterday: 52 °F

Past Weeks' High & Low Weather Summary

 TemperatureHumidityPressure
High69 °F (Apr 25, 2:00 PM)97% (Apr 22, 6:00 AM)30.26 "Hg (Apr 22, 6:00 AM)
Low35 °F (Apr 22, 2:00 AM)32% (Apr 25, 3:00 PM)29.60 "Hg (Apr 15, 10:00 PM)
Average46 °F74%29.96 "Hg
* Reported Apr 12 3:00 AM — Apr 27 3:00 AM, Elbląg, Weather by CustomWeather, © 2015

Note: Actual official high and low records may vary slightly from our data, if they occured in-between our weather recording intervals... More about our weather records

Advertising

Elbląg weather history for previous 24 hours

 ConditionsComfort  
Time TempWeatherWind HumidityBarometerVisibility
3:00 AM
Mon, Apr 27
48 °FFog.2 mph97%29.70 "Hg2 mi
2:00 AM47 °FFog.2 mph96%29.71 "Hg2 mi
1:00 AM48 °FFog.2 mph97%29.72 "Hg2 mi
12:00 AM47 °FFog.3 mph96%29.72 "Hg2 mi
11:00 PM
Sun, Apr 26
46 °FFog.2 mph94%29.73 "Hg2 mi
10:00 PM48 °FPassing clouds.1 mph93%29.74 "Hg1 mi
9:00 PM49 °FSprinkles. Overcast.No wind93%29.75 "Hg1 mi
8:00 PM50 °FPartly sunny.2 mph87%29.74 "Hg6 mi
7:00 PM51 °FPartly sunny.1 mph87%29.74 "Hg6 mi
6:00 PM52 °FOvercast.2 mph83%29.74 "Hg7 mi
5:00 PM52 °FOvercast.2 mph82%29.74 "Hg7 mi
4:00 PM53 °FOvercast.3 mph78%29.75 "Hg7 mi
3:00 PM56 °FPartly sunny.3 mph73%29.75 "Hg9 mi
2:00 PM57 °FPartly sunny.2 mph72%29.75 "Hg9 mi
1:00 PM56 °FOvercast.2 mph77%29.75 "Hg6 mi
12:00 PM55 °FOvercast.2 mph76%29.75 "Hg6 mi
11:00 AM59 °FPartly sunny.2 mph67%29.74 "Hg11 mi
10:00 AM55 °FPartly sunny.3 mph77%29.74 "Hg7 mi
9:00 AM54 °FOvercast.5 mph80%29.73 "Hg6 mi
8:00 AM52 °FOvercast.3 mph82%29.72 "Hg4 mi
7:00 AM51 °FFog.3 mph79%29.70 "Hg4 mi
6:00 AM53 °FFog.6 mph66%29.68 "Hg5 mi
5:00 AM52 °FFog.2 mph67%29.66 "Hg5 mi
Weather by CustomWeather, © 2015

See weather overviewHow to use our weather pages